User: anonymous   Login
Location: Standeford and Andreas Observatories
(44.1397°N, 93.9969°W)
Time: 05:16:11
(UTC-06:00)
Language:

Cosmos 1500 Rocket - Orbit

View from above orbital plane
View from above orbital plane
View from above satellite
View from above satellite

Ground track
Ground track

The orbit data is extracted from the following two-line orbital elements,

1 14373U 83099B   17349.86144425 +.00000075 +00000-0 +61117-5 0  9998
2 14373 082.5423 074.7750 0019881 351.6069 142.3257 14.83706900826717
Epoch (UTC): 15 December 2017 20:40:28
Eccentricity: 0.0019881
inclination: 82.5423°
perigee height: 604 km
apogee height: 631 km
right ascension of ascending node: 74.7750°
argument of perigee: 351.6069°
revolutions per day: 14.83706900
mean anomaly at epoch: 142.3257°
orbit number at epoch: 82671

The dashed part of the orbit path shows where the satellite is in the earth's shadow,  

DLR